FW0295 Weather Reports


time (UTC)temp
F
wind
direction
speed
knots
gust
knots
rain 1hr
in
rain 24hr
in
rain mn
in
humidity
%
barometer
mb
20260906200023 92 149 0.0 0.0 0.00 0.00 0.00 39 1010.2
20260906194525 92 194 0.0 0.0 0.00 0.00 0.00 40 1010.4
20260906193018 92 144 0.0 0.0 0.00 0.00 0.00 41 1010.8
20260906191526 91 129 0.0 0.0 0.00 0.00 0.00 42 1011.0
20260906190018 91 167 0.0 0.0 0.00 0.00 0.00 42 1011.3
20260906184517 90 127 0.0 0.0 0.00 0.00 0.00 44 1011.4
20260906183046 88 123 0.0 0.0 0.00 0.00 0.00 46 1011.7
20260906181546 86 96 0.0 0.0 0.00 0.00 0.00 49 1012.1
20260906180100 85 123 0.0 0.0 0.00 0.00 0.00 54 1012.4
20260906174543 84 112 0.0 0.0 0.00 0.00 0.00 56 1012.5
20260906173042 84 94 0.0 0.0 0.00 0.00 0.00 58 1012.9
20260906171543 82 112 0.0 0.0 0.00 0.00 0.00 62 1013.2
20260906170049 79 94 0.0 0.0 0.00 0.00 0.00 70 1013.4
20260906164540 78 96 0.0 0.0 0.00 0.00 0.00 69 1013.6
20260906163042 80 360 0.0 0.0 0.00 0.00 0.00 63 1013.9
20260906161537 80 360 0.0 0.0 0.00 0.00 0.00 64 1013.9
20260906160039 80 360 0.0 0.0 0.00 0.00 0.00 64 1013.7
20260906154533 80 360 0.0 0.0 0.00 0.00 0.00 62 1013.6
20260906153031 80 360 0.0 0.0 0.00 0.00 0.00 62 1013.4
20260906151533 79 360 0.0 0.0 0.00 0.00 0.00 63 1013.4
20260906150032 79 360 0.0 0.0 0.00 0.00 0.00 62 1013.2
20260906144532 79 360 0.0 0.0 0.00 0.00 0.00 62 1013.1
20260906143033 79 360 0.0 0.0 0.00 0.00 0.00 61 1012.9
20260906141529 79 360 0.0 0.0 0.00 0.00 0.00 63 1012.9
20260906140030 77 129 0.0 0.0 0.00 0.00 0.00 66 1012.3
20260906134518 76 157 0.0 0.0 0.00 0.00 0.00 69 1012.1
20260906133015 75 164 0.0 0.0 0.00 0.00 0.00 71 1011.9
20260906131529 74 360 0.0 0.0 0.00 0.00 0.00 72 1011.7
20260906130012 73 190 0.0 0.0 0.00 0.00 0.00 73 1011.5
20260906124508 72 164 0.0 0.0 0.00 0.00 0.00 73 1011.2
20260906123006 72 194 0.0 0.0 0.00 0.00 0.00 74 1011.0
20260906121505 71 196 0.0 0.0 0.00 0.00 0.00 74 1010.9
20260906120003 71 196 0.0 0.0 0.00 0.00 0.00 74 1010.7
20260906114602 71 197 0.0 0.0 0.00 0.00 0.00 74 1010.5
20260906113102 71 198 0.0 0.0 0.00 0.00 0.00 73 1010.4
20260906111611 72 199 0.0 0.0 0.00 0.00 0.00 72 1010.3
20260906110055 72 202 0.0 0.0 0.00 0.00 0.00 72 1010.3
20260906104552 72 203 0.0 0.0 0.00 0.00 0.00 70 1010.2
20260906103049 73 203 0.0 0.0 0.00 0.00 0.00 69 1010.1
20260906101546 74 203 0.0 0.0 0.00 0.00 0.00 68 1010.1
20260906100042 75 203 0.0 0.0 0.00 0.00 0.00 66 1010.0
20260906094541 76 203 0.0 0.0 0.00 0.00 0.00 65 1010.1
20260906093041 76 203 0.0 0.0 0.00 0.00 0.00 65 1010.0
20260906091536 77 203 0.0 0.0 0.00 0.00 0.00 64 1010.0
20260906090034 77 204 0.0 0.0 0.00 0.00 0.00 63 1010.0
20260906084543 77 204 0.0 0.0 0.00 0.00 0.00 62 1010.0
20260906083035 78 203 0.0 0.0 0.00 0.00 0.00 61 1010.1
20260906081530 78 203 0.0 0.0 0.00 0.00 0.00 60 1010.3
20260906080030 78 203 0.0 0.0 0.00 0.00 0.00 60 1010.3
20260906074523 79 203 0.0 0.0 0.00 0.00 0.00 59 1010.2
20260906073022 79 196 0.0 0.0 0.00 0.00 0.00 57 1010.1
20260906071522 79 195 0.0 0.0 0.00 0.00 0.00 57 1010.1
20260906070021 79 194 0.0 0.0 0.00 0.00 0.00 57 1009.9
20260906064550 80 186 0.0 0.0 0.00 0.00 0.00 56 1010.3
20260906063056 80 201 0.0 0.0 0.00 0.00 0.00 56 1010.2
20260906061553 80 209 0.0 0.0 0.00 0.00 0.00 57 1010.3
20260906060046 80 360 0.0 0.0 0.00 0.00 0.00 57 1010.2
20260906054549 79 148 0.0 0.0 0.00 0.00 0.00 59 1010.1
20260906053051 79 151 0.0 0.0 0.00 0.00 0.00 60 1009.9
20260906051541 79 103 0.0 0.0 0.00 0.00 0.00 59 1009.9
20260906050043 79 140 0.0 0.0 0.00 0.00 0.00 59 1009.7
20260906044540 79 143 0.0 0.0 0.00 0.00 0.00 59 1009.6
20260906043040 78 140 0.0 0.0 0.00 0.00 0.00 60 1009.4
20260906041535 78 130 0.0 0.0 0.00 0.00 0.00 59 1009.4
20260906040038 79 142 0.0 0.0 0.00 0.00 0.00 59 1009.5
20260906034542 79 134 0.0 0.0 0.00 0.00 0.00 59 1009.3
20260906033030 79 149 0.0 0.0 0.00 0.00 0.00 59 1009.3
20260906031525 79 169 0.0 0.0 0.00 0.00 0.00 59 1009.4
20260906030024 80 142 0.0 0.0 0.00 0.00 0.00 58 1009.3
20260906024520 80 148 0.0 0.0 0.00 0.00 0.00 58 1009.1
20260906023018 81 134 0.0 0.0 0.00 0.00 0.00 58 1008.8
20260906021519 81 115 0.0 0.0 0.00 0.00 0.00 58 1008.6
20260906020014 81 124 0.0 0.0 0.00 0.00 0.00 58 1008.5
20260906014524 81 113 0.0 0.0 0.00 0.00 0.00 58 1008.3
20260906013013 82 117 0.0 0.0 0.00 0.00 0.00 54 1008.1
20260906011506 82 115 0.0 0.0 0.00 0.00 0.00 54 1007.9
20260906010003 83 117 0.0 0.0 0.00 0.00 0.00 55 1008.0
20260906004501 83 122 0.0 0.0 0.00 0.00 0.00 54 1008.1
20260906003111 84 117 0.0 0.0 0.00 0.00 0.00 52 1008.2
20260906001553 85 118 0.0 0.0 0.00 0.00 0.00 50 1008.4
20260906000046 87 107 0.0 0.0 0.00 0.00 0.00 47 1008.4
20260905234542 88 99 0.0 0.0 0.00 0.00 0.00 47 1008.2
20260905233038 90 103 0.0 0.0 0.00 0.00 0.00 42 1008.2
20260905231538 96 125 0.0 0.0 0.00 0.00 0.00 33 1007.7
20260905230002 97 130 0.0 0.0 0.00 0.00 0.00 33 1007.3
20260905224600 97 142 0.0 0.0 0.00 0.00 0.00 33 1007.1
20260905223055 97 141 0.0 0.0 0.00 0.00 0.00 33 1007.0
20260905221552 98 148 0.0 0.0 0.00 0.00 0.00 33 1006.9
20260905220050 98 175 0.0 0.0 0.00 0.00 0.00 33 1006.8
20260905214546 98 188 0.0 0.0 0.00 0.00 0.00 33 1007.0
20260905213045 98 196 0.0 0.0 0.00 0.00 0.00 33 1007.2
20260905211543 99 144 0.0 0.0 0.00 0.00 0.00 32 1007.2
20260905210037 98 219 0.0 0.0 0.00 0.00 0.00 33 1007.3
20260905204541 97 169 0.0 0.0 0.00 0.00 0.00 33 1007.6
20260905203035 97 209 0.0 0.0 0.00 0.00 0.00 34 1008.1
20260905201538 97 191 0.0 0.0 0.00 0.00 0.00 35 1008.4